Location: Niagara
(43.2500°N, 79.0670°W)
Time: 18:11:48
(UTC-05:00)

OTV 5 (USA 277) - Pass Details

Date: 10 October 2017
Orbit: 404 x 417 km, 43.0° (Epoch: 07 September)

Event Time Altitude Azimuth Distance (km) Brightness Sun altitude
Rises 21:19:16 0° 257° (WSW) 2,351 ? -29.3°
Reaches altitude 10° 21:21:23 10° 255° (WSW) 1,488 ? -29.6°
Enters shadow 21:21:37 12° 255° (WSW) 1,393 ? -29.7°
